EW2295 Weather Reports


time (UTC)temp
F
wind
direction
speed
knots
gust
knots
rain 1hr
in
rain 24hr
in
rain mn
in
humidity
%
barometer
mb
20260508222543 46 0 0.0 0.0 0.00 0.00 0.00 92 1019.8
20260508222042 46 0 0.0 0.0 0.00 0.00 0.00 92 1019.8
20260508221602 46 0 0.0 0.0 0.00 0.00 0.00 92 1019.8
20260508221047 46 0 0.0 0.0 0.00 0.00 0.00 92 1019.8
20260508220546 46 0 0.0 0.0 0.00 0.00 0.00 92 1019.9
20260508220050 46 0 0.0 0.0 0.00 0.00 0.00 92 1019.8
20260508215546 46 0 0.0 0.0 0.00 0.00 0.00 91 1020.0
20260508215045 47 0 0.0 0.0 0.00 0.00 0.00 91 1019.9
20260508214551 47 0 0.0 0.0 0.00 0.00 0.00 91 1019.9
20260508214045 47 0 0.0 0.0 0.00 0.00 0.00 91 1019.9
20260508213544 47 0 0.0 0.0 0.00 0.00 0.00 91 1019.9
20260508213110 47 0 0.0 0.0 0.00 0.00 0.00 91 1019.9
20260508212545 47 0 0.0 0.0 0.00 0.00 0.00 90 1020.0
20260508212045 47 0 0.0 0.0 0.00 0.00 0.00 90 1020.1
20260508211551 48 0 0.0 0.0 0.00 0.00 0.00 90 1020.0
20260508211046 48 0 0.0 0.0 0.00 0.00 0.00 90 1020.0
20260508210544 48 0 0.0 0.0 0.00 0.00 0.00 89 1020.0
20260508210049 48 0 0.0 0.0 0.00 0.00 0.00 89 1019.9
20260508205544 48 0 0.0 0.0 0.00 0.00 0.00 88 1019.9
20260508205045 49 0 0.0 0.0 0.00 0.00 0.00 88 1019.8
20260508204551 49 0 0.0 0.0 0.00 0.00 0.00 88 1020.0
20260508204041 49 0 0.0 0.0 0.00 0.00 0.00 87 1019.9
20260508203541 49 0 0.0 0.0 0.00 0.00 0.00 87 1019.9
20260508203114 50 0 0.0 0.0 0.00 0.00 0.00 87 1019.8
20260508202545 50 0 0.0 0.0 0.00 0.00 0.00 87 1019.8
20260508202045 50 0 0.0 0.0 0.00 0.00 0.00 86 1019.8
20260508201551 50 0 0.0 0.0 0.00 0.00 0.00 86 1019.6
20260508201045 50 0 0.0 0.0 0.00 0.00 0.00 85 1019.7
20260508200545 51 0 0.0 0.0 0.00 0.00 0.00 84 1019.6
20260508200054 51 0 0.0 0.0 0.00 0.00 0.00 84 1019.7
20260508195544 51 0 0.0 0.0 0.00 0.00 0.00 83 1019.7
20260508195045 52 0 0.0 0.0 0.00 0.00 0.00 83 1019.7
20260508194553 52 0 0.0 0.0 0.00 0.00 0.00 82 1019.8
20260508194045 52 0 0.0 0.0 0.00 0.00 0.00 81 1019.7
20260508193544 53 0 0.0 0.0 0.00 0.00 0.00 80 1019.7
20260508193123 53 0 0.0 0.0 0.00 0.00 0.00 79 1019.7
20260508192541 53 0 0.0 0.0 0.00 0.00 0.00 79 1019.6
20260508192044 54 0 0.0 0.0 0.00 0.00 0.00 78 1019.6
20260508191552 54 0 0.0 0.9 0.00 0.00 0.00 77 1019.4
20260508191044 54 0 0.0 0.9 0.00 0.00 0.00 76 1019.4
20260508190545 54 0 0.0 0.0 0.00 0.00 0.00 76 1019.4
20260508190055 54 0 0.0 0.0 0.00 0.00 0.00 75 1019.2
20260508185546 55 0 0.0 2.6 0.00 0.00 0.00 75 1019.1
20260508185045 55 0 0.0 2.6 0.00 0.00 0.00 74 1019.1
20260508184626 55 0 0.0 0.0 0.00 0.00 0.00 74 1019.0
20260508184041 55 0 0.0 1.7 0.00 0.00 0.00 73 1019.0
20260508183544 55 0 0.0 2.6 0.00 0.00 0.00 72 1019.0
20260508183051 56 0 0.0 4.3 0.00 0.00 0.00 72 1019.0
20260508182543 56 0 0.0 4.3 0.00 0.00 0.00 72 1018.9
20260508182041 56 0 0.0 4.3 0.00 0.00 0.00 71 1018.9
20260508181550 56 0 0.0 4.3 0.00 0.00 0.00 70 1018.9
20260508181044 56 0 0.9 5.2 0.00 0.00 0.00 70 1018.9
20260508180542 56 0 1.7 5.2 0.00 0.00 0.00 70 1018.8
20260508175544 57 0 0.0 7.0 0.00 0.00 0.00 69 1018.9
20260508175042 57 0 0.0 7.0 0.00 0.00 0.00 68 1018.8
20260508174611 57 0 0.9 6.1 0.00 0.00 0.00 68 1018.8
20260508174044 57 36 0.0 5.2 0.00 0.00 0.00 68 1018.7
20260508173542 58 0 0.0 5.2 0.00 0.00 0.00 68 1018.6
20260508173110 58 0 0.0 4.3 0.00 0.00 0.00 68 1018.7
20260508172547 58 0 0.0 8.7 0.00 0.00 0.00 68 1018.6
20260508172045 58 0 0.0 8.7 0.00 0.00 0.00 68 1018.6
20260508171615 58 37 0.9 6.1 0.00 0.00 0.00 67 1018.5
20260508171046 59 0 1.7 6.1 0.00 0.00 0.00 67 1018.4
20260508170545 59 0 0.0 3.5 0.00 0.00 0.00 66 1018.4
20260508170051 59 0 0.0 5.2 0.00 0.00 0.00 65 1018.4
20260508165544 59 0 0.9 5.2 0.00 0.00 0.00 65 1018.3
20260508165044 58 0 0.9 4.3 0.00 0.00 0.00 66 1018.4
20260508164548 59 0 0.0 7.8 0.00 0.00 0.00 66 1018.4
20260508164045 59 0 0.9 7.8 0.00 0.00 0.00 65 1018.4
20260508163544 59 0 0.9 7.8 0.00 0.00 0.00 65 1018.3
20260508163056 59 0 0.0 4.3 0.00 0.00 0.00 65 1018.4
20260508162547 59 0 0.9 4.3 0.00 0.00 0.00 64 1018.3
20260508162045 59 0 0.0 2.6 0.00 0.00 0.00 64 1018.4
20260508161559 59 0 0.0 4.3 0.00 0.00 0.00 63 1018.3
20260508161044 59 0 0.0 5.2 0.00 0.00 0.00 63 1018.4
20260508160547 60 26 0.0 6.1 0.00 0.00 0.00 63 1018.4
20260508160053 60 23 0.0 6.1 0.00 0.00 0.00 63 1018.4
20260508155545 60 0 0.9 5.2 0.00 0.00 0.00 61 1018.3
20260508155045 60 0 1.7 5.2 0.00 0.00 0.00 62 1018.4
20260508154549 60 0 0.0 3.5 0.00 0.00 0.00 63 1018.3
20260508154044 59 0 0.0 0.9 0.00 0.00 0.00 61 1018.4
20260508153543 59 0 0.0 1.7 0.00 0.00 0.00 62 1018.5
20260508153050 59 0 0.0 3.5 0.00 0.00 0.00 64 1018.4
20260508152544 59 0 0.0 3.5 0.00 0.00 0.00 62 1018.5
20260508152044 59 40 0.0 3.5 0.00 0.00 0.00 62 1018.5
20260508151558 60 0 0.0 0.9 0.00 0.00 0.00 63 1018.6
20260508151042 60 0 0.0 4.3 0.00 0.00 0.00 62 1018.6
20260508150547 60 36 0.0 4.3 0.00 0.00 0.00 64 1018.6
20260508150055 60 0 0.0 3.5 0.00 0.00 0.00 61 1018.5
20260508145544 60 0 0.0 0.0 0.00 0.00 0.00 61 1018.5
20260508145041 59 0 0.0 3.5 0.00 0.00 0.00 62 1018.6
20260508144553 60 0 0.0 5.2 0.00 0.00 0.00 62 1018.6
20260508144045 60 0 0.0 5.2 0.00 0.00 0.00 63 1018.6
20260508143541 60 336 0.0 1.7 0.00 0.00 0.00 62 1018.5
20260508143057 60 0 0.0 1.7 0.00 0.00 0.00 61 1018.5
20260508142545 60 34 0.0 7.8 0.00 0.00 0.00 61 1018.6
20260508142045 60 0 0.0 7.8 0.00 0.00 0.00 60 1018.7
20260508141553 60 34 0.9 7.8 0.00 0.00 0.00 59 1018.6
20260508141042 60 0 0.0 4.3 0.00 0.00 0.00 60 1018.6
20260508140544 60 0 0.0 4.3 0.00 0.00 0.00 60 1018.7
20260508140051 61 0 1.7 4.3 0.00 0.00 0.00 60 1018.7
20260508135545 61 0 0.0 3.5 0.00 0.00 0.00 61 1018.7
20260508135041 60 0 0.0 2.6 0.00 0.00 0.00 60 1018.6
20260508134606 60 0 0.0 2.6 0.00 0.00 0.00 58 1018.6
20260508134044 60 0 0.0 3.5 0.00 0.00 0.00 59 1018.7
20260508133541 60 0 0.0 5.2 0.00 0.00 0.00 59 1018.5
20260508133110 60 0 0.9 5.2 0.00 0.00 0.00 58 1018.6
20260508132541 60 0 0.0 3.5 0.00 0.00 0.00 59 1018.7
20260508132044 60 0 0.0 4.3 0.00 0.00 0.00 58 1018.5
20260508131551 60 0 0.0 4.3 0.00 0.00 0.00 59 1018.5
20260508131044 60 15 0.0 6.1 0.00 0.00 0.00 58 1018.5
20260508130546 61 0 0.9 6.1 0.00 0.00 0.00 60 1018.5
20260508130049 62 349 0.0 7.0 0.00 0.00 0.00 59 1018.6
20260508125545 62 0 0.9 8.7 0.00 0.00 0.00 59 1018.6
20260508125045 62 0 0.9 8.7 0.00 0.00 0.00 58 1018.6
20260508124552 63 0 1.7 8.7 0.00 0.00 0.00 58 1018.6
20260508124044 62 17 0.0 7.0 0.00 0.00 0.00 57 1018.7
20260508123542 62 0 0.0 7.0 0.00 0.00 0.00 54 1018.6
20260508123101 62 0 0.0 7.0 0.00 0.00 0.00 56 1018.7
20260508122544 62 348 0.0 9.6 0.00 0.00 0.00 60 1018.8
20260508122044 62 360 0.9 9.6 0.00 0.00 0.00 58 1018.8
20260508121557 62 347 1.7 9.6 0.00 0.00 0.00 62 1018.7
20260508121044 61 0 0.0 5.2 0.00 0.00 0.00 58 1018.8
20260508120541 61 0 0.0 5.2 0.00 0.00 0.00 56 1018.6
20260508120055 62 0 0.9 5.2 0.00 0.00 0.00 59 1018.8
20260508115544 61 0 0.9 6.1 0.00 0.00 0.00 60 1018.8
20260508115043 61 296 0.9 6.1 0.00 0.00 0.00 59 1018.8
20260508114554 61 0 0.0 5.2 0.00 0.00 0.00 60 1018.7
20260508114046 61 0 0.0 5.2 0.00 0.00 0.00 59 1018.8
20260508113544 62 0 1.7 5.2 0.00 0.00 0.00 62 1018.8
20260508113105 61 0 0.0 7.8 0.00 0.00 0.00 63 1018.8
20260508112545 61 0 0.9 7.8 0.00 0.00 0.00 61 1018.8
20260508112044 62 0 0.0 5.2 0.00 0.00 0.00 64 1018.9
20260508111556 61 0 0.9 7.0 0.00 0.00 0.00 63 1018.9
20260508111045 61 0 0.0 7.0 0.00 0.00 0.00 65 1018.8
20260508110544 61 348 0.0 7.0 0.00 0.00 0.00 64 1019.0
20260508110058 61 0 0.0 7.0 0.00 0.00 0.00 65 1018.9
20260508105542 61 0 2.6 7.8 0.00 0.00 0.00 68 1018.9
20260508105044 60 0 0.9 7.8 0.00 0.00 0.00 68 1018.9
20260508104553 59 351 1.7 7.8 0.00 0.00 0.00 67 1019.0
20260508104044 60 0 2.6 7.8 0.00 0.00 0.00 67 1019.0
20260508103541 60 0 0.9 4.3 0.00 0.00 0.00 66 1019.0
20260508103049 61 0 0.0 3.5 0.00 0.00 0.00 67 1019.0
20260508102541 60 0 0.0 3.5 0.00 0.00 0.00 64 1019.1
20260508102045 60 31 0.0 0.9 0.00 0.00 0.00 64 1018.9
20260508101552 60 0 0.0 4.3 0.00 0.00 0.00 63 1019.0
20260508101043 60 0 0.9 5.2 0.00 0.00 0.00 63 1019.0
20260508100543 59 0 0.9 5.2 0.00 0.00 0.00 66 1019.0
20260508100052 59 0 0.0 4.3 0.00 0.00 0.00 65 1019.0
20260508095542 59 0 0.0 7.8 0.00 0.00 0.00 67 1019.0
20260508095045 58 0 0.0 7.8 0.00 0.00 0.00 65 1019.0
20260508094602 58 352 0.9 7.8 0.00 0.00 0.00 67 1019.1
20260508094044 59 0 0.0 5.2 0.00 0.00 0.00 67 1019.1
20260508093544 59 0 0.0 4.3 0.00 0.00 0.00 68 1019.1
20260508093054 59 0 0.9 4.3 0.00 0.00 0.00 67 1019.1
20260508092544 59 15 0.0 3.5 0.00 0.00 0.00 73 1019.1
20260508092044 58 0 0.0 3.5 0.00 0.00 0.00 72 1019.2
20260508091617 57 0 0.0 4.3 0.00 0.00 0.00 75 1019.1
20260508091043 56 0 0.0 4.3 0.00 0.00 0.00 74 1019.2
20260508090545 57 11 0.0 4.3 0.00 0.00 0.00 74 1019.2
20260508090059 56 5 0.0 4.3 0.00 0.00 0.00 74 1019.1
20260508085543 56 5 0.0 3.5 0.00 0.00 0.00 76 1019.2
20260508085045 55 360 0.9 8.7 0.00 0.00 0.00 78 1019.1
20260508084552 54 352 0.0 8.7 0.00 0.00 0.00 80 1019.2
20260508084043 54 0 1.7 8.7 0.00 0.00 0.00 79 1019.1
20260508083543 55 0 0.0 3.5 0.00 0.00 0.00 78 1019.2
20260508083053 56 0 0.9 3.5 0.00 0.00 0.00 79 1019.2
20260508082542 56 0 0.0 7.0 0.00 0.00 0.00 78 1019.2
20260508082045 56 0 0.0 7.0 0.00 0.00 0.00 79 1019.2
20260508081552 55 20 0.0 3.5 0.00 0.00 0.00 79 1019.3
20260508081042 55 0 0.0 0.0 0.00 0.00 0.00 78 1019.2
20260508080542 54 0 0.0 0.0 0.00 0.00 0.00 78 1019.2
20260508080052 54 0 0.0 0.0 0.00 0.00 0.00 80 1019.2
20260508075541 54 0 0.0 0.0 0.00 0.00 0.00 80 1019.2
20260508075042 54 0 0.0 0.0 0.00 0.00 0.00 83 1019.1
20260508074553 53 0 0.0 0.0 0.00 0.00 0.00 82 1019.0
20260508074043 52 0 0.0 0.0 0.00 0.00 0.00 83 1019.1
20260508073542 52 0 0.0 0.0 0.00 0.00 0.00 85 1019.2
20260508073057 52 0 0.0 0.0 0.00 0.00 0.00 87 1019.3
20260508072542 51 0 0.0 0.0 0.00 0.00 0.00 88 1019.2
20260508072043 51 0 0.0 0.0 0.00 0.00 0.00 90 1019.3
20260508071556 50 0 0.0 0.0 0.00 0.00 0.00 91 1019.2
20260508071041 50 0 0.0 0.0 0.00 0.00 0.00 93 1019.2
20260508070543 49 0 0.0 0.0 0.00 0.00 0.00 94 1019.1
20260508070100 48 0 0.0 0.0 0.00 0.00 0.00 95 1019.2
20260508065543 47 0 0.0 0.0 0.00 0.00 0.00 96 1019.2
20260508065042 47 0 0.0 0.0 0.00 0.00 0.00 96 1019.1
20260508064555 46 0 0.0 0.0 0.00 0.00 0.00 96 1018.9
20260508064042 45 0 0.0 0.0 0.00 0.00 0.00 96 1018.9
20260508063542 45 0 0.0 0.0 0.00 0.00 0.00 97 1018.8
20260508063120 44 0 0.0 0.0 0.00 0.00 0.00 96 1018.7
20260508062542 44 0 0.0 0.0 0.00 0.00 0.00 96 1018.7
20260508062046 43 0 0.0 0.0 0.00 0.00 0.00 96 1018.7
20260508061553 43 0 0.0 0.0 0.00 0.00 0.00 96 1018.6
20260508061046 42 0 0.0 0.0 0.00 0.00 0.00 96 1018.6
20260508060546 42 0 0.0 0.0 0.00 0.00 0.00 96 1018.8
20260508060055 42 0 0.0 0.0 0.00 0.00 0.00 96 1018.7
20260508055543 42 0 0.0 0.0 0.00 0.00 0.00 96 1018.7
20260508055043 42 0 0.0 0.0 0.00 0.00 0.00 96 1018.7
20260508054552 42 0 0.0 0.0 0.00 0.00 0.00 96 1018.6
20260508054043 41 0 0.0 0.0 0.00 0.00 0.00 96 1018.6
20260508053543 41 0 0.0 0.0 0.00 0.00 0.00 96 1018.6
20260508053102 41 0 0.0 0.0 0.00 0.00 0.00 96 1018.6
20260508052545 41 0 0.0 0.0 0.00 0.00 0.00 96 1018.6
20260508052046 40 0 0.0 0.0 0.00 0.00 0.00 96 1018.6
20260508051618 40 0 0.0 0.0 0.00 0.00 0.00 96 1018.6
20260508051047 40 0 0.0 0.0 0.00 0.00 0.00 96 1018.5
20260508050544 40 0 0.0 0.0 0.00 0.00 0.00 96 1018.6
20260508050054 39 0 0.0 0.0 0.00 0.00 0.00 96 1018.5
20260508045546 39 0 0.0 0.0 0.00 0.00 0.00 96 1018.5
20260508045048 38 0 0.0 0.0 0.00 0.00 0.00 96 1018.4
20260508044554 38 0 0.0 0.0 0.00 0.00 0.00 96 1018.3
20260508044046 38 0 0.0 0.0 0.00 0.00 0.00 96 1018.3
20260508043543 37 0 0.0 0.0 0.00 0.00 0.00 96 1018.2
20260508043058 37 0 0.0 0.0 0.00 0.00 0.00 96 1018.2
20260508042544 37 0 0.0 0.0 0.00 0.00 0.00 96 1018.2
20260508042045 37 0 0.0 0.0 0.00 0.00 0.00 96 1018.3
20260508041553 37 0 0.0 0.0 0.00 0.00 0.00 96 1018.2
20260508041047 37 0 0.0 0.0 0.00 0.00 0.00 96 1018.3
20260508040545 37 0 0.0 0.0 0.00 0.00 0.00 96 1018.3
20260508040056 37 0 0.0 0.0 0.00 0.00 0.00 96 1018.3
20260508035546 37 0 0.0 0.0 0.00 0.00 0.00 96 1018.3
20260508035046 37 0 0.0 0.0 0.00 0.00 0.00 96 1018.3
20260508034552 38 0 0.0 0.0 0.00 0.00 0.00 96 1018.2
20260508034043 38 0 0.0 0.0 0.00 0.00 0.00 96 1018.3
20260508033545 37 0 0.0 0.0 0.00 0.00 0.00 96 1018.3
20260508033053 37 0 0.0 0.0 0.00 0.00 0.00 96 1018.4
20260508032546 37 0 0.0 0.0 0.00 0.00 0.00 96 1018.3
20260508032046 38 0 0.0 0.0 0.00 0.00 0.00 96 1018.3
20260508031551 38 0 0.0 0.0 0.00 0.00 0.00 96 1018.2
20260508031045 38 0 0.0 0.0 0.00 0.00 0.00 96 1018.2
20260508030545 38 0 0.0 0.0 0.00 0.00 0.00 95 1018.2
20260508030056 38 0 0.0 0.0 0.00 0.00 0.00 96 1018.2
20260508025544 38 0 0.0 0.0 0.00 0.00 0.00 96 1018.1
20260508025044 38 0 0.0 0.0 0.00 0.00 0.00 95 1018.2
20260508024551 38 0 0.0 0.0 0.00 0.00 0.00 95 1018.2
20260508024047 39 0 0.0 0.0 0.00 0.00 0.00 96 1018.2
20260508023546 39 0 0.0 0.0 0.00 0.00 0.00 95 1018.1
20260508023053 39 0 0.0 0.0 0.00 0.00 0.00 95 1018.2
20260508022545 39 0 0.0 0.0 0.00 0.00 0.00 95 1018.2
20260508022048 39 0 0.0 0.0 0.00 0.00 0.00 96 1018.3
20260508021555 39 0 0.0 0.0 0.00 0.00 0.00 96 1018.3
20260508021043 39 0 0.0 0.0 0.00 0.00 0.00 96 1018.3
20260508020543 39 0 0.0 0.0 0.00 0.00 0.00 96 1018.3
20260508020105 39 0 0.0 0.0 0.00 0.00 0.00 95 1018.3
20260508015543 39 0 0.0 0.0 0.00 0.01 0.00 95 1018.3
20260508015045 39 0 0.0 0.0 0.00 0.01 0.00 95 1018.2
20260508014552 40 0 0.0 0.0 0.00 0.01 0.00 95 1018.2
20260508014047 40 0 0.0 0.0 0.00 0.01 0.00 95 1018.3
20260508013546 40 0 0.0 0.0 0.00 0.01 0.00 95 1018.2
20260508013053 40 0 0.0 0.0 0.00 0.01 0.00 95 1018.2
20260508012544 40 0 0.0 0.0 0.00 0.01 0.00 95 1018.3
20260508012046 40 0 0.0 0.0 0.00 0.01 0.00 95 1018.2
20260508011556 40 0 0.0 0.0 0.00 0.01 0.00 95 1018.2
20260508011043 40 0 0.0 0.0 0.00 0.01 0.00 95 1018.1
20260508010543 41 0 0.0 0.0 0.00 0.01 0.00 95 1018.2
20260508010111 41 0 0.0 0.0 0.00 0.01 0.00 95 1018.2
20260508005544 41 0 0.0 0.0 0.00 0.03 0.00 95 1018.3
20260508005045 41 0 0.0 0.0 0.00 0.03 0.00 95 1018.2
20260508004557 41 0 0.0 0.0 0.00 0.03 0.00 95 1018.3
20260508004047 41 0 0.0 0.0 0.00 0.03 0.00 95 1018.3
20260508003543 41 0 0.0 0.0 0.00 0.03 0.00 95 1018.3
20260508003103 41 0 0.0 0.0 0.00 0.03 0.00 95 1018.4
20260508002544 42 0 0.0 0.0 0.00 0.03 0.00 95 1018.3
20260508002044 42 0 0.0 0.0 0.00 0.03 0.00 95 1018.3
20260508001551 42 0 0.0 0.0 0.00 0.03 0.00 95 1018.4
20260508001044 42 0 0.0 0.0 0.00 0.03 0.00 95 1018.4
20260508000545 42 0 0.0 0.0 0.00 0.03 0.00 95 1018.5
20260508000054 42 0 0.0 0.0 0.00 0.03 0.00 95 1018.5
20260507235544 42 0 0.0 0.0 0.00 0.03 0.00 95 1018.4
20260507235043 42 0 0.0 0.0 0.00 0.03 0.00 95 1018.4
20260507234549 42 0 0.0 0.0 0.00 0.03 0.00 95 1018.5
20260507234046 42 0 0.0 0.0 0.00 0.03 0.00 95 1018.5
20260507233543 42 0 0.0 0.0 0.00 0.03 0.00 95 1018.4
20260507233051 42 0 0.0 0.0 0.00 0.03 0.00 95 1018.6
20260507232543 42 0 0.0 0.0 0.00 0.03 0.00 94 1018.4
20260507232047 42 0 0.0 0.0 0.00 0.03 0.00 95 1018.5
20260507231553 42 0 0.0 0.0 0.00 0.03 0.00 95 1018.5
20260507231048 42 0 0.0 0.0 0.00 0.03 0.00 94 1018.6
20260507230544 42 0 0.0 0.0 0.00 0.03 0.00 94 1018.6
20260507230107 43 0 0.0 0.0 0.00 0.03 0.00 94 1018.5
20260507225546 43 0 0.0 0.0 0.00 0.03 0.00 94 1018.6
20260507225046 43 0 0.0 0.0 0.00 0.03 0.00 94 1018.4
20260507224555 43 0 0.0 0.0 0.00 0.03 0.00 94 1018.5
20260507224043 43 0 0.0 0.0 0.00 0.03 0.00 94 1018.5
20260507223544 43 0 0.0 0.0 0.00 0.03 0.00 94 1018.5
20260507223201 44 0 0.0 0.0 0.00 0.03 0.00 94 1018.6